2016-05-27 00:01:34 r, 16.14m,0000000031Hz,0000014810c,0000000.032s, 031.9C,00002195
2016-05-27 00:11:34 r, 15.83m,0000000041Hz,0000011186c,0000000.024s, 031.9C,00002195
2016-05-27 00:21:34 r, 15.69m,0000000047Hz,0000009844c,0000000.021s, 031.9C,00002195
2016-05-27 00:31:34 r, 16.65m,0000000019Hz,0000023621c,0000000.051s, 031.9C,00002195
2016-05-27 00:41:34 r, 16.11m,0000000032Hz,0000014514c,0000000.031s, 031.9C,00002195
2016-05-27 00:51:34 r, 15.81m,0000000042Hz,0000010980c,0000000.024s, 031.9C,00002195
2016-05-27 01:01:36 r, 15.39m,0000000061Hz,0000007447c,0000000.016s, 031.9C,00002195
2016-05-27 01:11:34 r, 15.46m,0000000058Hz,0000007978c,0000000.017s, 031.9C,00002195
2016-05-27 01:21:34 r, 15.17m,0000000075Hz,0000006106c,0000000.013s, 031.9C,00002195
2016-05-27 01:31:34 r, 15.21m,0000000072Hz,0000006329c,0000000.014s, 031.9C,00002195
2016-05-27 01:41:34 r, 15.72m,0000000046Hz,0000010051c,0000000.022s, 031.5C,00002195
2016-05-27 01:51:34 r, 15.83m,0000000041Hz,0000011151c,0000000.024s, 031.9C,00002195
2016-05-27 02:01:35 r, 15.94m,0000000038Hz,0000012329c,0000000.027s, 031.5C,00002195
2016-05-27 02:11:34 r, 15.77m,0000000043Hz,0000010643c,0000000.023s, 031.9C,00002195
2016-05-27 02:21:34 r, 16.16m,0000000030Hz,0000015176c,0000000.033s, 031.9C,00002195
2016-05-27 02:31:34 r, 15.31m,0000000066Hz,0000006945c,0000000.015s, 031.9C,00002195
2016-05-27 02:41:34 r, 15.38m,0000000062Hz,0000007396c,0000000.016s, 031.9C,00002195
2016-05-27 02:51:35 r, 15.45m,0000000058Hz,0000007886c,0000000.017s, 032.2C,00002195
2016-05-27 03:01:34 r, 16.12m,0000000032Hz,0000014601c,0000000.032s, 032.2C,00002195
2016-05-27 03:11:34 r, 16.20m,0000000029Hz,0000015772c,0000000.034s, 032.2C,00002195
2016-05-27 03:21:34 r, 15.97m,0000000036Hz,0000012714c,0000000.028s, 032.2C,00002195
2016-05-27 03:31:36 r, 15.98m,0000000036Hz,0000012887c,0000000.028s, 031.9C,00002195
2016-05-27 03:41:34 r, 15.94m,0000000037Hz,0000012350c,0000000.027s, 031.9C,00002195
2016-05-27 03:51:34 r, 17.06m,0000000013Hz,0000034592c,0000000.075s, 031.9C,00002195
2016-05-27 04:01:34 r, 15.83m,0000000040Hz,0000011249c,0000000.024s, 031.9C,00002195
2016-05-27 04:11:34 r, 15.79m,0000000043Hz,0000010841c,0000000.024s, 031.9C,00002195
2016-05-27 04:21:34 r, 15.37m,0000000062Hz,0000007339c,0000000.016s, 031.9C,00002195
2016-05-27 04:31:34 r, 14.90m,0000000096Hz,0000004787c,0000000.010s, 032.2C,00002195
2016-05-27 04:41:34 r, 14.42m,0000000152Hz,0000000000c,0000000.000s, 032.2C,00002195
2016-05-27 04:51:34 r, 12.94m,0000000595Hz,0000000000c,0000000.000s, 032.2C,00002195
2016-05-27 05:01:34 r, 11.02m,0000003476Hz,0000000000c,0000000.000s, 031.9C,00002195
2016-05-27 05:11:34 r, 09.98m,0000009081Hz,0000000000c,0000000.000s, 031.9C,00002195
2016-05-27 05:21:34 r, 09.06m,0000021151Hz,0000000000c,0000000.000s, 031.5C,00002195
2016-05-27 05:31:36 r, 08.38m,0000039702Hz,0000000000c,0000000.000s, 031.5C,00002195
2016-05-27 05:41:34 r, 07.74m,0000071269Hz,0000000000c,0000000.000s, 031.5C,00002195
2016-05-27 05:51:34 r, 07.09m,0000130131Hz,0000000000c,0000000.000s, 031.2C,00002195
2016-05-27 06:01:34 r, 07.05m,0000134700Hz,0000000000c,0000000.000s, 030.9C,00002195
2016-05-27 06:11:34 r, 00.00m,0000516937Hz,0000000000c,0000000.000s, 030.9C,00002195
2016-05-27 06:21:34 r, 00.00m,0000564598Hz,0000000000c,0000000.000s, 030.9C,00002195
2016-05-27 06:31:35 r, 00.00m,0000564685Hz,0000000000c,0000000.000s, 031.2C,00002195
2016-05-27 06:41:34 r, 00.00m,0000564691Hz,0000000000c,0000000.000s, 031.5C,00002195
2016-05-27 06:51:34 r, 00.00m,0000564690Hz,0000000000c,0000000.000s, 031.9C,00002195
2016-05-27 07:01:35 r, 00.00m,0000564800Hz,0000000000c,0000000.000s, 032.2C,00002195
2016-05-27 07:11:34 r, 00.00m,0000564801Hz,0000000000c,0000000.000s, 032.2C,00002195
2016-05-27 07:21:34 r, 00.00m,0000564789Hz,0000000000c,0000000.000s, 032.5C,00002195
2016-05-27 07:31:36 r, 00.00m,0000564821Hz,0000000000c,0000000.000s, 032.5C,00002195
2016-05-27 07:41:34 r, 00.00m,0000564826Hz,0000000000c,0000000.000s, 032.5C,00002195
2016-05-27 07:51:34 r, 00.00m,0000564894Hz,0000000000c,0000000.000s, 032.8C,00002195
2016-05-27 08:01:36 r, 00.00m,0000564875Hz,0000000000c,0000000.000s, 033.1C,00002195
2016-05-27 08:11:34 r, 00.00m,0000564919Hz,0000000000c,0000000.000s, 033.1C,00002195
2016-05-27 08:21:34 r, 00.00m,0000565027Hz,0000000000c,0000000.000s, 033.5C,00002195
2016-05-27 08:31:35 r, 00.00m,0000564932Hz,0000000000c,0000000.000s, 033.5C,00002195
2016-05-27 08:41:34 r, 00.00m,0000564959Hz,0000000000c,0000000.000s, 033.5C,00002195
2016-05-27 08:51:34 r, 00.00m,0000416125Hz,0000000000c,0000000.000s, 033.1C,00002195
2016-05-27 09:01:34 r, 00.00m,0000564889Hz,0000000000c,0000000.000s, 033.1C,00002195
2016-05-27 09:11:36 r, 00.00m,0000564863Hz,0000000000c,0000000.000s, 033.1C,00002195
2016-05-27 09:21:34 r, 00.00m,0000564902Hz,0000000000c,0000000.000s, 033.5C,00002195
2016-05-27 09:31:35 r, 00.00m,0000565117Hz,0000000000c,0000000.000s, 034.4C,00002195
2016-05-27 09:41:35 r, 00.00m,0000565049Hz,0000000000c,0000000.000s, 034.4C,00002195
2016-05-27 09:51:34 r, 00.00m,0000565174Hz,0000000000c,0000000.000s, 035.1C,00002195
2016-05-27 10:01:36 r, 00.00m,0000565323Hz,0000000000c,0000000.000s, 036.7C,00002195
2016-05-27 10:11:35 r, 00.00m,0000565333Hz,0000000000c,0000000.000s, 037.7C,00002195
2016-05-27 10:21:34 r, 00.00m,0000565353Hz,0000000000c,0000000.000s, 037.7C,00002195
2016-05-27 10:31:34 r, 00.00m,0000565522Hz,0000000000c,0000000.000s, 038.6C,00002195
2016-05-27 10:41:34 r, 00.00m,0000565618Hz,0000000000c,0000000.000s, 039.3C,00002195
2016-05-27 10:51:34 r, 00.00m,0000565638Hz,0000000000c,0000000.000s, 040.6C,00002195
2016-05-27 11:01:35 r, 00.00m,0000565838Hz,0000000000c,0000000.000s, 042.2C,00002195
2016-05-27 11:11:34 r, 00.00m,0000565727Hz,0000000000c,0000000.000s, 041.5C,00002195
2016-05-27 11:21:34 r, 00.00m,0000565617Hz,0000000000c,0000000.000s, 040.9C,00002195
2016-05-27 11:31:35 r, 00.00m,0000565574Hz,0000000000c,0000000.000s, 039.9C,00002195
2016-05-27 11:41:35 r, 00.00m,0000565436Hz,0000000000c,0000000.000s, 038.6C,00002195
2016-05-27 11:51:34 r, 00.00m,0000565401Hz,0000000000c,0000000.000s, 038.3C,00002195
2016-05-27 12:01:34 r, 00.00m,0000565632Hz,0000000000c,0000000.000s, 040.2C,00002195
2016-05-27 12:11:35 r, 00.00m,0000566017Hz,0000000000c,0000000.000s, 042.2C,00002195
2016-05-27 12:21:34 r, 00.00m,0000566288Hz,0000000000c,0000000.000s, 046.0C,00002195
2016-05-27 12:31:35 r, 00.00m,0000566309Hz,0000000000c,0000000.000s, 047.7C,00002195
2016-05-27 12:41:35 r, 00.00m,0000566201Hz,0000000000c,0000000.000s, 047.3C,00002195
2016-05-27 12:51:34 r, 00.00m,0000566233Hz,0000000000c,0000000.000s, 047.7C,00002195
2016-05-27 13:01:35 r, 00.00m,0000566098Hz,0000000000c,0000000.000s, 047.3C,00002195
2016-05-27 13:11:35 r, 00.00m,0000566147Hz,0000000000c,0000000.000s, 048.0C,00002195
2016-05-27 13:21:34 r, 00.00m,0000566222Hz,0000000000c,0000000.000s, 048.9C,00002195
2016-05-27 13:31:35 r, 00.00m,0000566092Hz,0000000000c,0000000.000s, 048.6C,00002195
2016-05-27 13:41:35 r, 00.00m,0000565836Hz,0000000000c,0000000.000s, 046.0C,00002195
2016-05-27 13:51:34 r, 00.00m,0000566110Hz,0000000000c,0000000.000s, 048.0C,00002195
2016-05-27 14:01:34 r, 00.00m,0000566364Hz,0000000000c,0000000.000s, 051.8C,00002195
2016-05-27 14:11:34 r, 00.00m,0000566419Hz,0000000000c,0000000.000s, 053.8C,00002195
2016-05-27 14:21:34 r, 00.00m,0000566459Hz,0000000000c,0000000.000s, 055.7C,00002195
2016-05-27 14:31:34 r, 00.00m,0000566509Hz,0000000000c,0000000.000s, 057.3C,00002195
2016-05-27 14:41:36 r, 00.00m,0000566304Hz,0000000000c,0000000.000s, 055.1C,00002195
2016-05-27 14:51:34 r, 00.00m,0000566023Hz,0000000000c,0000000.000s, 050.2C,00002195
2016-05-27 15:01:35 r, 00.00m,0000565780Hz,0000000000c,0000000.000s, 047.7C,00002195
2016-05-27 15:11:34 r, 00.00m,0000566014Hz,0000000000c,0000000.000s, 048.9C,00002195
2016-05-27 15:21:34 r, 00.00m,0000565803Hz,0000000000c,0000000.000s, 047.0C,00002195
2016-05-27 15:31:34 r, 00.00m,0000565759Hz,0000000000c,0000000.000s, 045.4C,00002195
2016-05-27 15:41:35 r, 00.00m,0000565769Hz,0000000000c,0000000.000s, 045.4C,00002195
2016-05-27 15:51:34 r, 00.00m,0000565561Hz,0000000000c,0000000.000s, 043.1C,00002195
2016-05-27 16:01:36 r, 00.00m,0000565312Hz,0000000000c,0000000.000s, 040.6C,00002195
2016-05-27 16:11:35 r, 00.00m,0000565005Hz,0000000000c,0000000.000s, 038.0C,00002195
2016-05-27 16:21:34 r, 00.00m,0000564972Hz,0000000000c,0000000.000s, 036.4C,00002195
2016-05-27 16:31:37 r, 00.00m,0000565061Hz,0000000000c,0000000.000s, 037.3C,00002195
2016-05-27 16:41:35 r, 00.00m,0000565563Hz,0000000000c,0000000.000s, 041.5C,00002195
2016-05-27 16:51:34 r, 00.00m,0000565760Hz,0000000000c,0000000.000s, 043.8C,00002195
2016-05-27 17:01:34 r, 00.00m,0000565789Hz,0000000000c,0000000.000s, 044.8C,00002195
2016-05-27 17:11:34 r, 00.00m,0000565837Hz,0000000000c,0000000.000s, 045.4C,00002195
2016-05-27 17:21:34 r, 00.00m,0000565791Hz,0000000000c,0000000.000s, 046.0C,00002195
2016-05-27 17:31:35 r, 00.00m,0000565985Hz,0000000000c,0000000.000s, 047.0C,00002195
2016-05-27 17:41:37 r, 00.00m,0000565818Hz,0000000000c,0000000.000s, 045.7C,00002195
2016-05-27 17:51:34 r, 00.00m,0000565774Hz,0000000000c,0000000.000s, 045.4C,00002195
2016-05-27 18:01:35 r, 00.00m,0000565806Hz,0000000000c,0000000.000s, 046.0C,00002195
2016-05-27 18:11:37 r, 00.00m,0000565857Hz,0000000000c,0000000.000s, 046.4C,00002195
2016-05-27 18:21:34 r, 00.00m,0000565785Hz,0000000000c,0000000.000s, 046.4C,00002195
2016-05-27 18:31:34 r, 00.00m,0000565741Hz,0000000000c,0000000.000s, 046.4C,00002195
2016-05-27 18:41:36 r, 00.00m,0000565685Hz,0000000000c,0000000.000s, 045.1C,00002195
2016-05-27 18:51:34 r, 00.00m,0000565565Hz,0000000000c,0000000.000s, 043.1C,00002195
2016-05-27 19:01:35 r, 00.00m,0000565613Hz,0000000000c,0000000.000s, 043.8C,00002195
2016-05-27 19:11:34 r, 00.00m,0000565559Hz,0000000000c,0000000.000s, 043.1C,00002195
2016-05-27 19:21:34 r, 00.00m,0000565533Hz,0000000000c,0000000.000s, 042.5C,00002195
2016-05-27 19:31:34 r, 00.00m,0000565471Hz,0000000000c,0000000.000s, 041.2C,00002195
2016-05-27 19:41:35 r, 00.00m,0000565250Hz,0000000000c,0000000.000s, 039.6C,00002195
2016-05-27 19:51:34 r, 00.00m,0000565187Hz,0000000000c,0000000.000s, 038.3C,00002195
2016-05-27 20:01:35 r, 00.00m,0000565144Hz,0000000000c,0000000.000s, 037.7C,00002195
2016-05-27 20:11:35 r, 00.00m,0000564931Hz,0000000000c,0000000.000s, 036.4C,00002195
2016-05-27 20:21:34 r, 00.00m,0000564933Hz,0000000000c,0000000.000s, 035.4C,00002195
2016-05-27 20:31:34 r, 00.00m,0000548161Hz,0000000000c,0000000.000s, 034.4C,00002195
2016-05-27 20:41:35 r, 00.00m,0000454842Hz,0000000000c,0000000.000s, 033.8C,00002195
2016-05-27 20:51:34 r, 06.00m,0000355300Hz,0000000000c,0000000.000s, 033.5C,00002195
2016-05-27 21:01:37 r, 06.32m,0000262785Hz,0000000000c,0000000.000s, 033.1C,00002195
2016-05-27 21:11:35 r, 06.68m,0000189041Hz,0000000000c,0000000.000s, 032.8C,00002195
2016-05-27 21:21:34 r, 07.56m,0000084142Hz,0000000000c,0000000.000s, 032.5C,00002195
2016-05-27 21:31:34 r, 08.50m,0000035772Hz,0000000000c,0000000.000s, 032.2C,00002195
2016-05-27 21:41:34 r, 09.71m,0000011627Hz,0000000000c,0000000.000s, 031.9C,00002195
2016-05-27 21:51:34 r, 11.15m,0000003090Hz,0000000000c,0000000.000s, 031.5C,00002195
2016-05-27 22:01:34 r, 12.66m,0000000765Hz,0000000000c,0000000.000s, 031.5C,00002195
2016-05-27 22:11:34 r, 14.21m,0000000183Hz,0000000000c,0000000.000s, 031.2C,00002195
2016-05-27 22:21:34 r, 15.57m,0000000052Hz,0000008871c,0000000.019s, 031.2C,00002195
2016-05-27 22:31:34 r, 15.12m,0000000079Hz,0000005798c,0000000.013s, 030.9C,00002195
2016-05-27 22:41:37 r, 15.57m,0000000052Hz,0000008841c,0000000.019s, 031.2C,00002195
2016-05-27 22:51:34 r, 16.72m,0000000018Hz,0000025260c,0000000.055s, 031.5C,00002195
2016-05-27 23:01:34 r, 16.42m,0000000024Hz,0000019129c,0000000.042s, 031.5C,00002195
2016-05-27 23:11:34 r, 15.81m,0000000042Hz,0000010937c,0000000.024s, 031.5C,00002195
2016-05-27 23:21:34 r, 15.58m,0000000052Hz,0000008843c,0000000.019s, 031.5C,00002195
2016-05-27 23:31:34 r, 15.67m,0000000047Hz,0000009688c,0000000.021s, 031.9C,00002195
2016-05-27 23:41:35 r, 16.25m,0000000028Hz,0000016552c,0000000.036s, 031.9C,00002195
2016-05-27 23:51:34 r, 17.07m,0000000013Hz,0000034899c,0000000.076s, 031.9C,00002195
